EW5549 Weather Reports


Display with metric or nautical units.
time (UTC)temp
F
wind
direction
speed
MPH
gust
MPH
rain 1hr
in
rain 24hr
in
rain mn
in
humidity
%
barometer
mb
20260502170156 60 304 4.0 6.0 0.00 0.00 0.00 46 1020.9
20260502164142 59 22 2.0 5.0 0.00 0.00 0.00 47 1021.1
20260502163638 58 39 1.0 2.0 0.00 0.00 0.00 50 1021.1
20260502163135 58 310 3.0 5.0 0.00 0.00 0.00 50 1021.1
20260502162632 57 354 2.0 2.0 0.00 0.00 0.00 51 1021.2
20260502162129 57 314 4.0 8.0 0.00 0.00 0.00 50 1020.8
20260502161626 57 0 3.0 3.0 0.00 0.00 0.00 50 1021.1
20260502161123 56 355 7.0 9.0 0.00 0.00 0.00 51 1021.1
20260502160621 56 284 7.0 8.0 0.00 0.00 0.00 52 1021.3
20260502160120 56 2 1.0 2.0 0.00 0.00 0.00 49 1021.2
20260502152034 54 279 3.0 5.0 0.00 0.00 0.00 50 1021.7
20260502151531 54 187 0.0 0.0 0.00 0.00 0.00 51 1021.8
20260502151028 53 217 2.0 2.0 0.00 0.00 0.00 53 1021.5
20260502150526 52 157 3.0 3.0 0.00 0.00 0.00 55 1021.8
20260502130410 35 23 1.0 2.0 0.00 0.00 0.00 82 1021.1
20260502123353 33 100 1.0 2.0 0.00 0.00 0.00 85 1020.6
20260502122850 33 15 0.0 0.0 0.00 0.00 0.00 84 1020.7
20260502122346 33 15 0.0 0.0 0.00 0.00 0.00 85 1020.5
20260502121845 33 15 0.0 0.0 0.00 0.00 0.00 86 1020.6
20260502121342 33 15 0.0 0.0 0.00 0.00 0.00 87 1020.7
20260502120839 32 15 0.0 0.0 0.00 0.00 0.00 86 1020.5
20260502120335 32 15 0.0 0.0 0.00 0.00 0.00 87 1020.5
20260502115832 32 15 0.0 0.0 0.00 0.00 0.00 86 1020.4
20260502115330 33 15 0.0 0.0 0.00 0.00 0.00 85 1020.5
20260502114826 33 15 0.0 0.0 0.00 0.00 0.00 85 1020.5
20260502114323 33 15 0.0 0.0 0.00 0.00 0.00 84 1020.2
20260502113820 33 15 0.0 0.0 0.00 0.00 0.00 83 1020.4
20260502113317 34 15 0.0 0.0 0.00 0.00 0.00 82 1020.3
20260502112816 35 15 1.0 1.0 0.00 0.00 0.00 80 1020.4
20260502112313 34 15 0.0 0.0 0.00 0.00 0.00 82 1020.4
20260502111810 35 15 0.0 0.0 0.00 0.00 0.00 81 1020.2
20260502111307 35 77 0.0 0.0 0.00 0.00 0.00 79 1020.2
20260502110805 35 77 0.0 0.0 0.00 0.00 0.00 79 1020.1
20260502110303 36 77 0.0 0.0 0.00 0.00 0.00 78 1020.3
20260502105800 36 110 0.0 0.0 0.00 0.00 0.00 77 1020.2
20260502105256 36 111 2.0 2.0 0.00 0.00 0.00 77 1019.9
20260502104754 35 85 1.0 1.0 0.00 0.00 0.00 80 1020.2
20260502104251 35 59 0.0 0.0 0.00 0.00 0.00 83 1020.2
20260502103749 35 59 0.0 0.0 0.00 0.00 0.00 84 1020.2
20260502103246 35 53 0.0 0.0 0.00 0.00 0.00 83 1019.9
20260502102743 35 53 0.0 0.0 0.00 0.00 0.00 83 1020.1
20260502102239 35 55 0.0 0.0 0.00 0.00 0.00 83 1019.9
20260502101738 35 76 0.0 0.0 0.00 0.00 0.00 82 1019.9
20260502101236 36 76 0.0 1.0 0.00 0.00 0.00 81 1019.9
20260502100733 35 88 1.0 1.0 0.00 0.00 0.00 83 1019.8
20260502100232 35 89 2.0 2.0 0.00 0.00 0.00 81 1019.7
20260502091206 38 101 0.0 0.0 0.00 0.00 0.00 77 1019.7
20260502090703 37 101 0.0 0.0 0.00 0.00 0.00 78 1019.6
20260502090159 38 101 0.0 0.0 0.00 0.00 0.00 77 1019.5
20260502071055 43 77 0.0 0.0 0.00 0.00 0.00 67 1019.4
20260502070554 41 77 0.0 0.0 0.00 0.00 0.00 72 1019.2
20260502070051 41 53 0.0 0.0 0.00 0.00 0.00 72 1019.2
20260502065549 41 53 0.0 0.0 0.00 0.00 0.00 72 1019.2
20260502065047 41 54 0.0 0.0 0.00 0.00 0.00 71 1019.1
20260502064545 41 54 0.0 0.0 0.00 0.00 0.00 71 1018.9
20260502064042 41 54 0.0 0.0 0.00 0.00 0.00 71 1018.9
20260502063540 42 54 0.0 0.0 0.00 0.00 0.00 70 1019.1
20260502063037 42 58 0.0 0.0 0.00 0.00 0.00 71 1018.9
20260502062534 42 58 0.0 0.0 0.00 0.00 0.00 70 1018.8
20260502062032 43 58 0.0 0.0 0.00 0.00 0.00 70 1018.9
20260502061530 43 57 0.0 0.0 0.00 0.00 0.00 69 1018.7
20260502061027 44 107 0.0 0.0 0.00 0.00 0.00 69 1018.8
20260502060522 44 107 0.0 0.0 0.00 0.00 0.00 68 1018.9
20260502060019 44 108 1.0 2.0 0.00 0.00 0.00 68 1018.7
20260502055516 44 87 1.0 1.0 0.00 0.00 0.00 67 1018.8
20260502055015 46 73 0.0 0.0 0.00 0.00 0.00 63 1018.7
20260502054513 46 56 0.0 0.0 0.00 0.00 0.00 61 1018.7
20260502054010 46 55 0.0 0.0 0.00 0.00 0.00 62 1018.8
20260502053507 46 68 0.0 0.0 0.00 0.00 0.00 66 1018.7
20260502053005 46 39 0.0 0.0 0.00 0.00 0.00 64 1018.7
20260502052503 46 97 0.0 0.0 0.00 0.00 0.00 62 1018.7
20260502052001 46 97 0.0 0.0 0.00 0.00 0.00 61 1018.5
20260502051459 46 97 0.0 0.0 0.00 0.00 0.00 60 1018.5
20260502050955 46 97 0.0 0.0 0.00 0.00 0.00 61 1018.5
20260502050452 46 97 0.0 0.0 0.00 0.00 0.00 64 1018.6
20260502045949 47 131 0.0 0.0 0.00 0.00 0.00 62 1018.6
20260502045446 46 131 1.0 1.0 0.00 0.00 0.00 62 1018.8
20260502044943 46 131 2.0 2.0 0.00 0.00 0.00 64 1018.5
20260502044438 46 104 0.0 0.0 0.00 0.00 0.00 66 1018.8
20260502043936 46 104 0.0 0.0 0.00 0.00 0.00 65 1018.5
20260502043434 46 104 0.0 0.0 0.00 0.00 0.00 64 1018.4
20260502042933 47 242 0.0 0.0 0.00 0.00 0.00 63 1018.6
20260502042430 47 169 0.0 0.0 0.00 0.00 0.00 61 1018.4
20260502041927 48 144 0.0 0.0 0.00 0.00 0.00 59 1018.4
20260502041425 49 144 0.0 0.0 0.00 0.00 0.00 57 1018.4
20260502040922 50 143 0.0 0.0 0.00 0.00 0.00 56 1018.5
20260502040419 50 144 0.0 0.0 0.00 0.00 0.00 57 1018.4
20260502035915 50 144 0.0 0.0 0.00 0.00 0.00 57 1018.4
20260502035411 50 143 0.0 0.0 0.00 0.00 0.00 56 1018.3
20260502034909 51 94 0.0 0.0 0.00 0.00 0.00 54 1018.3
20260502034408 52 250 2.0 2.0 0.00 0.00 0.00 55 1018.2
20260502033906 54 67 2.0 2.0 0.00 0.00 0.00 52 1018.0
20260502033403 54 77 3.0 5.0 0.00 0.00 0.00 51 1017.8
20260502032859 55 85 2.0 2.0 0.00 0.00 0.00 49 1017.8
20260502032355 56 94 3.0 3.0 0.00 0.00 0.00 49 1017.9
20260502031853 56 87 3.0 5.0 0.00 0.00 0.00 46 1017.7
20260502031351 57 69 0.0 0.0 0.00 0.00 0.00 46 1017.8
20260502030849 58 105 2.0 2.0 0.00 0.00 0.00 45 1017.7
20260502030347 58 105 2.0 2.0 0.00 0.00 0.00 44 1017.6
20260502025844 58 111 3.0 3.0 0.00 0.00 0.00 43 1017.4
20260502025342 58 81 2.0 2.0 0.00 0.00 0.00 44 1017.5
20260502024840 58 41 1.0 1.0 0.00 0.00 0.00 44 1017.5
20260502024337 61 51 2.0 2.0 0.00 0.00 0.00 39 1017.5
20260502023835 62 116 2.0 2.0 0.00 0.00 0.00 37 1017.4
20260502023332 62 119 2.0 2.0 0.00 0.00 0.00 37 1017.2
20260502022830 63 120 3.0 3.0 0.00 0.00 0.00 37 1016.9
20260502022326 64 119 3.0 3.0 0.00 0.00 0.00 36 1017.3
20260502021823 64 126 4.0 5.0 0.00 0.00 0.00 36 1017.4
20260502021320 64 102 5.0 6.0 0.00 0.00 0.00 35 1017.3
20260502020818 65 100 4.0 5.0 0.00 0.00 0.00 35 1017.0
20260502020315 66 120 6.0 9.0 0.00 0.00 0.00 34 1017.0
20260502015812 66 127 7.0 7.0 0.00 0.00 0.00 33 1017.0
20260502015308 67 117 7.0 8.0 0.00 0.00 0.00 33 1017.2
20260502014806 67 109 7.0 8.0 0.00 0.00 0.00 33 1016.9
20260502014303 67 117 5.0 7.0 0.00 0.00 0.00 33 1016.9
20260502013759 68 119 6.0 7.0 0.00 0.00 0.00 33 1017.3
20260502013255 68 125 9.0 10.0 0.00 0.00 0.00 31 1017.2
20260502012752 68 119 7.0 8.0 0.00 0.00 0.00 32 1017.3
20260502012249 68 133 7.0 7.0 0.00 0.00 0.00 30 1017.0
20260502011747 68 108 7.0 8.0 0.00 0.00 0.00 30 1017.3
20260502011242 69 114 5.0 7.0 0.00 0.00 0.00 31 1017.4
20260502010740 69 114 7.0 8.0 0.00 0.00 0.00 29 1017.2
20260502010235 69 108 5.0 6.0 0.00 0.00 0.00 29 1017.4
20260502005733 70 120 5.0 7.0 0.00 0.00 0.00 28 1017.3
20260502005231 70 117 8.0 9.0 0.00 0.00 0.00 26 1017.2
20260502004728 70 111 7.0 9.0 0.00 0.00 0.00 26 1017.3
20260502004224 70 123 9.0 10.0 0.00 0.00 0.00 26 1017.4
20260502003722 70 124 7.0 8.0 0.00 0.00 0.00 25 1017.5
20260502003219 70 117 5.0 6.0 0.00 0.00 0.00 26 1017.5
20260502002715 70 124 7.0 7.0 0.00 0.00 0.00 26 1017.6
20260502002213 70 111 9.0 10.0 0.00 0.00 0.00 27 1017.5
20260502001709 71 109 7.0 9.0 0.00 0.00 0.00 26 1017.3
20260502001208 71 125 6.0 6.0 0.00 0.00 0.00 26 1017.4
20260502000705 71 128 5.0 6.0 0.00 0.00 0.00 25 1017.5
20260502000204 70 107 7.0 8.0 0.00 0.00 0.00 24 1017.6
20260501235658 71 116 9.0 9.0 0.00 0.00 0.00 23 1017.5
20260501235154 71 101 6.0 7.0 0.00 0.00 0.00 26 1017.6
20260501234650 71 83 6.0 7.0 0.00 0.00 0.00 25 1017.7
20260501234148 71 106 7.0 7.0 0.00 0.00 0.00 25 1017.6
20260501233646 71 99 9.0 10.0 0.00 0.00 0.00 26 1017.6
20260501233142 71 140 4.0 5.0 0.00 0.00 0.00 25 1017.7
20260501232638 71 101 5.0 7.0 0.00 0.00 0.00 27 1017.7
20260501232136 71 68 5.0 6.0 0.00 0.00 0.00 27 1017.8
20260501231633 71 84 8.0 9.0 0.00 0.00 0.00 26 1017.9
20260501231132 71 88 7.0 9.0 0.00 0.00 0.00 31 1017.8
20260501230630 71 84 5.0 5.0 0.00 0.00 0.00 24 1017.9
20260501230128 71 71 5.0 6.0 0.00 0.00 0.00 27 1017.8
20260501225625 71 87 6.0 7.0 0.00 0.00 0.00 28 1017.9
20260501225121 71 100 9.0 10.0 0.00 0.00 0.00 27 1018.0
20260501224618 70 75 2.0 3.0 0.00 0.00 0.00 27 1018.2
20260501224115 70 115 5.0 6.0 0.00 0.00 0.00 26 1018.2
20260501223612 70 115 7.0 8.0 0.00 0.00 0.00 25 1018.2
20260501223108 70 76 5.0 7.0 0.00 0.00 0.00 27 1018.3
20260501222604 70 92 4.0 6.0 0.00 0.00 0.00 23 1018.3
20260501222101 70 87 8.0 9.0 0.00 0.00 0.00 25 1018.5
20260501221558 70 90 7.0 8.0 0.00 0.00 0.00 28 1018.5
20260501221055 70 93 10.0 10.0 0.00 0.00 0.00 27 1018.5
20260501220553 70 97 8.0 9.0 0.00 0.00 0.00 26 1018.4
20260501220050 70 89 6.0 7.0 0.00 0.00 0.00 28 1018.9
20260501215546 69 99 4.0 5.0 0.00 0.00 0.00 26 1018.7
20260501215041 70 119 9.0 10.0 0.00 0.00 0.00 27 1018.7
20260501214537 69 121 5.0 6.0 0.00 0.00 0.00 27 1018.8
20260501214033 69 43 3.0 3.0 0.00 0.00 0.00 32 1018.9
20260501213530 69 90 6.0 8.0 0.00 0.00 0.00 31 1019.1
20260501213026 70 101 6.0 8.0 0.00 0.00 0.00 27 1019.1
20260501212522 69 71 4.0 6.0 0.00 0.00 0.00 32 1019.1
20260501212020 69 100 6.0 8.0 0.00 0.00 0.00 30 1018.9
20260501211516 69 41 3.0 7.0 0.00 0.00 0.00 33 1019.2
20260501211015 68 72 2.0 3.0 0.00 0.00 0.00 31 1019.3
20260501210510 69 89 9.0 10.0 0.00 0.00 0.00 28 1019.3
20260501210007 69 80 10.0 11.0 0.00 0.00 0.00 30 1019.2
20260501205504 68 44 7.0 10.0 0.00 0.00 0.00 32 1019.3
20260501205002 68 82 4.0 6.0 0.00 0.00 0.00 32 1019.3
20260501204457 68 59 5.0 6.0 0.00 0.00 0.00 32 1019.4
20260501203954 68 38 6.0 8.0 0.00 0.00 0.00 30 1019.5
20260501203450 68 110 11.0 13.0 0.00 0.00 0.00 28 1019.3
20260501202948 67 36 4.0 5.0 0.00 0.00 0.00 33 1019.6
20260501202444 67 99 8.0 8.0 0.00 0.00 0.00 31 1019.6
20260501201941 67 106 7.0 8.0 0.00 0.00 0.00 35 1019.7
20260501201438 67 75 7.0 8.0 0.00 0.00 0.00 32 1019.7
20260501200935 67 50 5.0 7.0 0.00 0.00 0.00 33 1019.7
20260501200432 66 61 1.0 2.0 0.00 0.00 0.00 36 1019.8
20260501195930 66 95 1.0 2.0 0.00 0.00 0.00 35 1019.9
20260501195426 66 62 7.0 7.0 0.00 0.00 0.00 32 1019.9
20260501194921 65 97 6.0 10.0 0.00 0.00 0.00 33 1019.9
20260501194418 65 72 7.0 8.0 0.00 0.00 0.00 32 1020.1
20260501193914 65 95 9.0 9.0 0.00 0.00 0.00 35 1020.1
20260501193412 65 86 9.0 9.0 0.00 0.00 0.00 31 1020.2
20260501192910 64 75 4.0 5.0 0.00 0.00 0.00 38 1020.3
20260501192407 65 77 6.0 7.0 0.00 0.00 0.00 34 1020.2
20260501191904 64 92 4.0 5.0 0.00 0.00 0.00 35 1020.4
20260501191401 65 118 7.0 7.0 0.00 0.00 0.00 35 1020.5
20260501190858 64 144 5.0 5.0 0.00 0.00 0.00 33 1020.4
20260501190354 64 38 2.0 3.0 0.00 0.00 0.00 37 1020.5
20260501185849 63 28 3.0 6.0 0.00 0.00 0.00 36 1020.6
20260501185345 64 119 5.0 6.0 0.00 0.00 0.00 34 1020.6
20260501184841 64 68 5.0 7.0 0.00 0.00 0.00 35 1020.9
20260501184337 63 119 5.0 7.0 0.00 0.00 0.00 36 1020.8
20260501183832 63 9 3.0 3.0 0.00 0.00 0.00 35 1021.1
20260501183330 63 65 7.0 9.0 0.00 0.00 0.00 39 1021.1
20260501182826 62 102 2.0 2.0 0.00 0.00 0.00 35 1021.1
20260501182324 63 49 4.0 5.0 0.00 0.00 0.00 40 1021.2
20260501181820 62 22 2.0 5.0 0.00 0.00 0.00 38 1021.2
20260501181317 61 95 2.0 2.0 0.00 0.00 0.00 40 1021.3
20260501180815 60 95 5.0 6.0 0.00 0.00 0.00 38 1021.4
20260501180310 60 84 7.0 7.0 0.00 0.00 0.00 41 1021.5
20260501175808 60 69 4.0 6.0 0.00 0.00 0.00 44 1021.6
20260501175306 60 88 5.0 7.0 0.00 0.00 0.00 43 1021.6
20260501174801 59 82 7.0 7.0 0.00 0.00 0.00 40 1021.8
20260501174259 58 82 4.0 5.0 0.00 0.00 0.00 43 1021.8
20260501173756 58 114 3.0 3.0 0.00 0.00 0.00 42 1022.1
20260501173254 57 34 5.0 6.0 0.00 0.00 0.00 45 1021.8
20260501172749 58 82 2.0 2.0 0.00 0.00 0.00 42 1022.0
20260501172245 57 34 3.0 5.0 0.00 0.00 0.00 43 1022.2
20260501171740 56 101 0.0 0.0 0.00 0.00 0.00 45 1022.2
20260501171237 56 5 1.0 2.0 0.00 0.00 0.00 42 1022.2